Wind_Speed
71 75 77 80 85 88 89 87 92 99 106 100 86 87 85 75 74 74 78 77 72 70 72 73 74 77 80 84 89 94 102 109 112 115 118 119 120 123 126 124 122 120 114 109
74 77 78 78 78 81 85 91 100 101 88 85 90 86 79 76 75 79 76 71 69 67 69 71 73 77 80 82 88 91 97 104 109 113 116 119 119 121 123 124 125 124 122 116
69 71 76 79 81 83 86 89 91 93 91 83 81 80 76 76 80 78 72 68 65 65 67 70 71 74 77 81 85 88 94 102 107 110 113 117 120 119 119 121 122 123 125 123
73 75 76 78 78 82 86 92 89 82 80 79 79 68 72 76 75 70 67 64 64 63 64 63 64 68 72 75 78 84 88 94 101 108 110 112 115 117 118 118 119 121 123 124
71 71 74 77 81 83 81 84 79 80 76 75 73 69 74 75 71 67 64 63 60 57 58 60 60 62 66 70 71 74 80 87 93 98 102 107 110 111 115 116 117 118 121 119
74 73 76 81 82 86 81 79 74 70 69 69 72 70 73 70 66 61 62 60 58 55 53 54 56 59 60 60 64 69 72 77 82 88 94 98 102 108 113 115 115 116 117 116
74 74 77 79 84 84 80 74 69 64 64 66 69 68 68 65 62 62 60 58 55 53 52 50 48 51 53 55 56 62 66 69 72 78 83 87 93 101 104 109 114 115 118 116
73 75 78 81 86 85 76 70 65 62 61 60 67 68 66 63 62 63 59 55 52 50 48 49 48 47 44 47 46 48 56 63 64 68 72 78 85 89 93 100 104 106 114 118
72 78 81 86 88 80 70 65 62 60 59 56 61 63 65 61 62 59 55 53 51 51 51 51 52 46 42 40 38 37 41 50 55 57 60 68 76 81 85 89 93 99 103 108
76 80 85 86 83 72 68 63 59 59 57 54 57 59 60 58 59 55 51 49 49 51 54 53 50 46 42 37 35 33 32 35 42 47 49 54 61 68 73 81 85 87 93 101
81 82 86 81 75 66 62 59 56 54 56 56 52 59 59 58 57 50 47 45 46 49 52 55 53 44 41 36 31 31 30 31 36 39 41 47 52 61 66 69 75 82 86 92
83 83 79 74 67 60 58 57 53 51 51 54 51 57 56 56 54 46 43 42 44 45 50 52 52 46 37 35 29 26 25 26 29 35 39 42 49 54 59 64 67 71 81 88
81 78 76 68 61 57 57 55 49 48 48 55 50 53 51 54 49 41 39 39 41 44 48 50 50 45 35 30 27 23 20 19 18 23 33 39 43 49 55 57 59 67 74 82
79 72 69 62 57 54 54 54 46 46 45 51 50 50 52 48 44 39 36 37 38 40 42 47 45 41 36 30 23 20 17 13 13 15 19 32 41 45 50 56 58 60 66 73
67 62 61 58 56 53 52 52 45 44 40 46 49 45 50 45 40 35 34 33 34 36 38 43 44 42 37 31 26 20 15 10 8 10 15 19 30 40 45 50 54 57 59 63
62 58 55 56 54 50 51 49 43 44 40 44 42 47 45 41 36 31 30 29 32 32 35 41 40 37 33 31 28 22 17 13 6 4 9 14 17 25 36 43 47 50 52 54
56 55 52 50 54 50 50 46 42 43 37 42 41 42 45 38 32 29 26 24 27 28 32 37 37 39 37 32 30 25 18 14 12 7 1 7 13 16 23 31 36 41 46 48
52 53 52 47 48 46 50 49 40 38 34 39 39 40 41 35 29 26 23 19 20 24 28 29 33 37 36 37 36 31 23 23 22 16 9 8 10 14 15 20 27 34 40 43
52 50 47 44 43 42 54 49 36 32 36 35 36 37 38 33 26 21 21 13 15 20 22 25 30 34 37 37 38 39 36 37 37 32 23 18 16 17 18 19 20 25 29 33
48 47 45 42 37 36 48 42 34 29 34 35 36 36 36 30 25 18 18 7 10 16 18 20 26 28 32 34 38 37 40 46 44 42 36 29 30 34 31 27 24 22 22 23
45 43 42 40 33 35 40 39 29 30 31 33 34 37 33 27 22 17 17 8 4 8 13 16 20 26 28 29 31 39 35 42 46 46 46 47 50 50 52 51 48 44 37 38
40 36 39 38 33 33 36 35 29 28 31 30 32 36 32 25 21 18 18 12 3 1 6 9 14 19 22 26 27 24 30 34 38 37 48 51 50 55 40 47 45 44 37 40
32 38 34 29 34 33 30 32 29 30 30 31 30 35 29 24 21 20 20 16 9 4 1 3 10 14 17 23 22 26 32 30 32 33 32 41 41 36 36 29 33 40 35 34
34 41 24 23 37 30 34 30 25 27 32 31 30 35 29 23 20 23 22 18 11 9 5 2 5 11 14 16 19 22 23 25 28 23 26 35 35 31 31 35 33 30 27 32
47 27 21 26 33 36 37 24 27 31 32 33 32 34 32 24 22 27 26 21 14 11 9 7 5 2 5 8 10 12 16 18 18 17 21 18 13 19 32 34 28 29 31 28
39 22 22 28 38 34 33 27 31 35 35 33 35 35 29 26 25 31 30 25 18 15 12 10 8 6 3 2 4 5 7 9 12 12 12 11 10 10 11 10 13 25 27 23
Wind_Direction
274 277 282 286 289 291 294 295 296 298 300 303 302 302 303 304 303 301 299 297 292 285 280 276 271 267 261 257 253 249 247 246 243 242 241 240 240 240 240 239 236 236 235 235
277 280 285 290 293 296 297 299 298 300 301 303 303 301 304 306 305 303 300 295 291 286 281 275 271 268 265 260 254 249 247 246 245 243 241 240 239 239 239 239 238 237 236 234
285 287 287 292 297 303 304 302 302 302 301 300 300 304 305 307 307 304 301 298 293 288 283 279 275 271 267 262 257 253 250 246 244 244 242 240 238 237 238 238 237 237 237 236
286 289 291 295 299 304 308 305 304 303 303 299 300 304 305 308 308 305 304 302 301 298 293 287 280 274 269 265 259 256 252 248 246 245 243 241 239 237 236 237 237 238 237 236
288 291 293 296 302 305 308 306 307 307 303 302 305 311 313 312 308 308 307 307 303 298 293 288 283 278 274 271 266 261 255 250 246 244 243 243 241 238 237 235 235 236 238 236
290 292 296 301 307 311 309 307 307 306 308 307 310 314 313 311 309 310 312 311 308 304 300 296 290 284 279 273 268 264 259 253 248 245 243 240 239 238 238 236 234 234 236 235
293 295 299 304 310 311 310 309 309 310 309 310 312 314 313 312 315 317 319 314 312 309 307 299 294 289 286 278 270 264 262 257 250 245 241 239 237 236 235 236 234 232 233 234
294 298 303 307 310 312 310 308 309 312 311 314 314 316 315 317 321 324 319 316 313 314 313 318 314 303 296 285 276 265 258 256 253 247 242 238 236 234 233 233 232 231 229 230
299 301 303 307 309 309 308 308 310 311 313 316 314 317 317 323 324 322 319 319 322 322 327 324 323 317 311 300 290 276 260 253 251 248 242 236 235 233 230 231 229 229 229 227
300 301 303 307 308 307 306 309 311 311 312 315 318 318 319 325 326 321 321 325 325 330 328 329 332 326 318 310 299 290 276 262 253 247 242 235 231 231 229 229 227 226 228 227
299 301 305 306 305 305 304 308 311 313 315 319 322 317 322 326 326 322 324 325 330 332 331 335 335 334 324 318 306 295 285 271 260 246 237 230 225 223 224 225 225 224 224 226
298 301 303 304 302 303 307 309 312 316 316 316 322 318 323 328 324 322 326 332 331 336 337 335 336 339 335 322 313 301 286 272 261 247 231 223 220 218 218 219 220 220 222 224
297 299 301 299 300 303 304 306 313 314 316 316 322 319 326 327 323 327 330 331 336 340 342 339 342 341 345 336 322 311 297 275 257 251 236 221 215 215 214 215 214 216 219 222
296 297 298 295 297 302 303 303 311 312 316 316 318 322 328 328 324 328 329 334 342 343 345 343 350 355 2 352 341 329 315 297 264 234 236 231 215 209 208 208 211 214 218 221
293 293 293 294 297 301 301 303 309 309 312 313 317 323 326 328 325 327 330 338 343 347 352 356 5 0 5 6 1 351 336 322 276 240 219 217 223 214 207 205 208 212 217 220
290 289 288 292 296 300 299 303 309 309 308 312 317 321 325 327 323 327 329 338 342 355 356 15 10 13 15 15 14 9 2 354 340 263 222 206 206 217 214 209 208 209 211 214
283 284 285 288 294 298 296 301 307 306 306 311 316 319 322 325 324 325 328 337 343 2 6 24 20 23 33 35 32 24 20 24 39 40 134 189 190 196 209 211 209 207 207 208
279 282 284 287 292 296 293 297 302 299 301 307 312 318 321 322 322 318 319 331 345 2 12 27 26 34 42 45 41 37 39 47 53 60 79 118 151 166 181 200 202 201 201 202
277 279 282 288 290 293 288 293 297 293 299 304 308 316 319 318 316 307 309 328 357 358 18 30 35 38 49 46 49 58 64 67 65 59 71 90 106 129 142 152 173 185 191 194
277 278 282 283 287 285 282 294 295 290 295 304 307 313 315 310 309 295 293 314 7 357 20 32 43 45 48 49 59 59 64 67 65 70 72 81 98 103 109 114 123 138 149 160
272 276 280 284 288 281 284 289 287 285 295 300 304 310 307 302 298 275 265 260 11 356 13 40 38 47 53 52 60 64 71 72 63 68 88 89 97 100 103 104 104 107 112 124
273 274 276 285 287 283 290 284 280 285 293 298 303 307 300 292 287 260 246 237 234 3 32 27 57 51 50 59 61 70 72 84 84 77 91 95 100 105 103 111 110 122 126 131
273 273 273 290 290 288 277 275 280 289 297 299 303 303 293 284 272 245 239 233 218 206 80 87 71 74 61 64 58 68 74 85 101 99 102 115 114 117 116 121 132 135 140 149
268 264 288 296 286 280 270 275 283 293 293 298 302 294 289 276 262 236 227 218 217 206 188 174 76 70 62 55 61 78 60 74 85 109 122 133 135 135 132 135 144 157 166 174
257 275 290 283 278 272 280 288 291 291 295 293 294 285 280 267 245 223 216 210 201 208 210 196 192 75 62 77 80 71 69 70 73 74 92 105 142 150 159 159 163 169 180 192
258 273 280 277 270 281 287 289 292 291 294 294 285 277 268 254 231 213 210 212 203 201 210 204 217 231 244 149 105 104 103 103 102 103 111 98 96 104 116 144 183 210 216 222
Height
10571 10567 10562 10556 10548 10541 10535 10528 10518 10507 10497 10494 10476 10469 10458 10449 10437 10427 10416 10410 10405 10400 10389 10384 10381 10378 10377 10377 10377 10380 10382 10385 10393 10402 10412 10424 10438 10450 10463 10477 10489 10499 10515 10532
10558 10552 10546 10540 10533 10524 10517 10510 10499 10490 10476 10468 10459 10448 10435 10425 10417 10406 10397 10388 10380 10372 10364 10356 10352 10348 10345 10346 10344 10346 10350 10353 10357 10367 10378 10391 10406 10419 10431 10446 10461 10472 10486 10505
10542 10538 10531 10524 10516 10506 10495 10488 10479 10473 10461 10444 10439 10430 10415 10404 10394 10382 10373 10364 10356 10348 10339 10330 10326 10320 10316 10314 10313 10316 10319 10321 10323 10331 10344 10356 10372 10388 10401 10415 10429 10441 10453 10470
10527 10521 10515 10507 10500 10489 10477 10468 10459 10452 10441 10427 10417 10416 10398 10389 10379 10365 10353 10342 10331 10320 10310 10304 10298 10291 10285 10283 10283 10285 10287 10289 10295 10301 10311 10324 10340 10359 10371 10384 10398 10410 10422 10439
10510 10505 10498 10490 10482 10470 10461 10451 10442 10432 10419 10406 10397 10391 10376 10370 10359 10347 10335 10323 10312 10301 10290 10280 10272 10266 10261 10257 10255 10255 10255 10256 10261 10270 10281 10295 10310 10326 10338 10356 10371 10382 10390 10415
10494 10488 10481 10472 10464 10453 10444 10436 10427 10416 10404 10390 10380 10372 10360 10353 10343 10331 10317 10302 10291 10282 10271 10261 10251 10243 10238 10234 10228 10224 10224 10226 10233 10240 10251 10266 10280 10294 10309 10323 10343 10356 10366 10384
10478 10471 10465 10457 10448 10436 10426 10420 10410 10403 10392 10377 10365 10360 10348 10338 10326 10314 10300 10287 10276 10265 10255 10244 10233 10223 10216 10209 10205 10201 10198 10198 10205 10213 10222 10235 10248 10261 10278 10293 10312 10331 10341 10358
10463 10455 10448 10442 10431 10422 10412 10404 10394 10387 10380 10369 10348 10344 10332 10323 10310 10296 10286 10274 10265 10253 10241 10227 10215 10205 10197 10188 10184 10180 10178 10176 10180 10187 10198 10210 10220 10234 10249 10264 10281 10298 10313 10332
10449 10440 10432 10427 10414 10406 10399 10392 10384 10374 10365 10359 10342 10332 10318 10311 10299 10287 10274 10263 10252 10241 10228 10217 10203 10190 10180 10172 10165 10161 10159 10159 10162 10167 10175 10186 10197 10209 10223 10238 10253 10270 10288 10306
10433 10427 10415 10411 10399 10391 10382 10377 10371 10361 10352 10349 10334 10323 10310 10301 10289 10277 10264 10254 10244 10232 10219 10204 10192 10179 10168 10160 10152 10147 10145 10144 10146 10150 10157 10168 10179 10191 10202 10216 10234 10250 10264 10282
10418 10411 10402 10395 10386 10378 10370 10364 10358 10349 10338 10331 10328 10309 10301 10291 10281 10269 10258 10249 10237 10227 10212 10195 10182 10171 10158 10150 10144 10137 10133 10132 10133 10136 10142 10152 10162 10173 10185 10198 10213 10227 10241 10256
10401 10397 10387 10380 10373 10367 10357 10352 10345 10336 10330 10321 10318 10302 10295 10283 10273 10263 10253 10243 10234 10222 10206 10191 10178 10165 10153 10143 10135 10129 10125 10124 10125 10127 10131 10137 10147 10158 10169 10181 10194 10209 10223 10234
10386 10380 10374 10367 10361 10355 10346 10341 10337 10328 10321 10309 10307 10297 10289 10277 10267 10257 10248 10240 10229 10216 10202 10187 10174 10161 10149 10139 10131 10125 10121 10119 10119 10122 10125 10129 10136 10147 10157 10169 10181 10194 10205 10218
10370 10362 10358 10351 10349 10345 10337 10330 10328 10319 10313 10303 10298 10289 10278 10272 10260 10251 10245 10236 10225 10216 10202 10188 10174 10160 10147 10137 10129 10122 10117 10115 10115 10114 10119 10125 10130 10137 10148 10159 10171 10182 10193 10205
10353 10349 10344 10335 10335 10333 10327 10320 10317 10313 10306 10297 10288 10283 10273 10265 10255 10247 10240 10233 10224 10215 10204 10189 10175 10162 10150 10139 10130 10124 10118 10114 10112 10113 10115 10119 10127 10134 10141 10150 10161 10173 10184 10197
10337 10336 10332 10325 10322 10321 10315 10309 10306 10301 10296 10288 10285 10273 10269 10261 10252 10245 10238 10231 10224 10217 10206 10194 10181 10168 10155 10143 10136 10128 10121 10117 10113 10113 10114 10117 10122 10131 10139 10146 10154 10165 10178 10191
10320 10319 10320 10318 10309 10308 10301 10299 10297 10290 10287 10280 10276 10269 10262 10255 10247 10242 10237 10231 10224 10217 10207 10198 10186 10174 10163 10152 10142 10133 10127 10123 10117 10115 10115 10117 10122 10128 10137 10145 10154 10164 10174 10186
10306 10305 10304 10306 10300 10298 10286 10285 10288 10282 10278 10273 10269 10263 10256 10250 10243 10238 10236 10231 10224 10218 10210 10203 10193 10183 10172 10162 10153 10143 10135 10128 10123 10123 10121 10121 10123 10129 10135 10144 10153 10162 10171 10181
10291 10292 10291 10292 10291 10287 10268 10272 10278 10273 10266 10266 10261 10257 10250 10244 10239 10236 10233 10229 10224 10219 10212 10205 10199 10190 10183 10175 10166 10156 10146 10140 10134 10131 10129 10128 10131 10134 10139 10146 10155 10163 10173 10185
10277 10278 10279 10280 10281 10275 10257 10264 10265 10263 10258 10255 10251 10248 10243 10239 10235 10232 10230 10228 10223 10220 10215 10209 10204 10197 10190 10184 10178 10170 10161 10154 10148 10145 10141 10140 10141 10143 10148 10153 10159 10167 10178 10190
10265 10267 10265 10265 10267 10261 10255 10256 10257 10252 10251 10247 10243 10239 10235 10231 10229 10227 10226 10225 10223 10220 10217 10212 10208 10204 10199 10192 10187 10181 10178 10171 10166 10162 10161 10157 10157 10159 10163 10167 10173 10179 10189 10200
10253 10255 10253 10254 10253 10252 10248 10245 10245 10243 10241 10239 10235 10230 10226 10223 10222 10222 10221 10221 10222 10219 10218 10216 10211 10208 10204 10201 10197 10192 10188 10185 10183 10181 10179 10177 10177 10179 10183 10185 10190 10198 10206 10215
10244 10240 10244 10246 10242 10242 10239 10235 10234 10233 10231 10229 10225 10220 10218 10215 10215 10215 10217 10218 10219 10218 10217 10216 10214 10212 10209 10207 10204 10202 10198 10195 10194 10192 10193 10191 10192 10194 10196 10202 10206 10212 10219 10224
10230 10223 10238 10237 10226 10230 10225 10224 10225 10225 10221 10217 10214 10209 10208 10207 10208 10209 10212 10214 10215 10216 10216 10215 10215 10214 10212 10210 10208 10208 10205 10204 10203 10202 10201 10201 10201 10203 10206 10211 10215 10221 10226 10230
10207 10225 10229 10226 10220 10216 10213 10217 10215 10211 10209 10207 10203 10198 10197 10198 10199 10203 10206 10209 10211 10213 10213 10214 10214 10214 10214 10213 10213 10212 10211 10210 10210 10209 10210 10211 10211 10213 10215 10217 10221 10224 10228 10232
10204 10217 10219 10215 10209 10210 10206 10207 10204 10201 10198 10195 10191 10187 10187 10188 10191 10195 10200 10204 10207 10209 10211 10212 10212 10213 10213 10214 10214 10214 10214 10214 10213 10214 10214 10215 10216 10218 10222 10225 10228 10230 10232 10234